Regional Weather Roundup
Issued by NWS

Home | Current Version | Previous Version | Text Only | Print | Product List | Glossary Off
Versions: 1 2 3 4 5 6 7 8 9 10 11 12 13 14 15 16 17 18 19 20 21 22 23 24 25 26 27 28 29 30 31 32 33 34 35 36 37 38 39 40 41 42 43 44 45 46 47 48 49 50

000
ASUS43 KMKX 220010
RWRWI

WISCONSIN REGIONAL WEATHER ROUNDUP
NATIONAL WEATHER SERVICE MILWAUKEE/SULLIVAN WI
600 PM CST SAT JAN 21 2017

NOTE: "FAIR" INDICATES FEW OR NO CLOUDS BELOW 12,000 FEET WITH NO
SIGNIFICANT WEATHER AND/OR OBSTRUCTIONS TO VISIBILITY.

WIZ001-002-006>008-014>016-023>028-220100-
NORTHWEST WISCONSIN

CITY           SKY/WX    TMP DP  RH WIND       PRES   REMARKS
SUPERIOR ARPT  CLOUDY    35  35 100 NE7       29.50R WCI  29
6HR MIN TEMP:  35; 6HR MAX TEMP:  35; 6HR PCP:  0.01;

ASHLAND        FOG       33  33 100 N6        29.49R VSB 1/4 WCI  28
6HR MIN TEMP:  33; 6HR MAX TEMP:  36; 6HR PCP:  0.08;

HAYWARD        CLOUDY    36  34  92 CALM      29.46R FOG
6HR MIN TEMP:  35; 6HR MAX TEMP:  39; 6HR PCP:  0.04;

SIREN          CLOUDY    36  36 100 N3        29.48R FOG
6HR MIN TEMP:  36; 6HR MAX TEMP:  37; 6HR PCP:  0.02;

CUMBERLAND     FOG       34  32  93 CALM      29.46R VSB 1/2
RICE LAKE      FOG       35  35  99 CALM      29.47R VSB 1/4
6HR MIN TEMP:  35; 6HR MAX TEMP:  37;

CHETEK         FOG       35  35 100 CALM      29.46R VSB 1/2
6HR MIN TEMP:  34; 6HR MAX TEMP:  36;

LADYSMITH      CLOUDY    37  37  97 CALM      29.47R FOG
6HR MIN TEMP:  37; 6HR MAX TEMP:  38; 6HR PCP:  0.02;

EAU CLAIRE     FOG       36  50 100 CALM      29.46R VSB 1/4
6HR MIN TEMP:  35; 6HR MAX TEMP:  37; 6HR PCP:  0.02;

MENOMONIE        N/A    N/A N/A N/A MISG        N/A
NEW RICHMOND   FOG       34  34 100 CALM      29.46S VSB 1/2
6HR MIN TEMP:  34; 6HR MAX TEMP:  36; 6HR PCP:  0.01;

OSCEOLA        FOG       36  36 100 CALM      29.49S VSB 1/4
6HR MIN TEMP:  36; 6HR MAX TEMP:  38; 6HR PCP:  0.01;

$$

WIZ003>005-009-010-017-018-220100-
NORTH CENTRAL WISCONSIN

CITY           SKY/WX    TMP DP  RH WIND       PRES   REMARKS
MANITOWISH WTR DRIZZLE   35  35 100 CALM      29.45S
6HR MIN TEMP:  34; 6HR MAX TEMP:  36; 6HR PCP:  0.10;

ARBOR VITAE    DRIZZLE   37  36  96 SE3       29.46R
6HR MIN TEMP:  37; 6HR MAX TEMP:  38;

WOODRUFF       DRIZZLE   37  36  96 SE3       29.46R
6HR MIN TEMP:  37; 6HR MAX TEMP:  38;

RHINELANDER    LGT RAIN  36  36 100 E7        29.46R VSB 1   WCI  30
6HR MIN TEMP:  36; 6HR MAX TEMP:  37; 6HR PCP:  0.03;

EAGLE RIVER    LGT SNOW  35  35 100 CALM      29.47R
6HR MIN TEMP:  34; 6HR MAX TEMP:  37;

LAND O LAKES   CLOUDY    36  36 100 S3        29.48R FOG
6HR MIN TEMP:  35; 6HR MAX TEMP:  37;

PHILLIPS       FOG       35  35 100 CALM      29.45R VSB 1
6HR MIN TEMP:  35; 6HR MAX TEMP:  36; 6HR PCP:  0.19;

TOMAHAWK       DRIZZLE   35  34  96 CALM      29.47R
6HR MIN TEMP:  35; 6HR MAX TEMP:  37;

MEDFORD        FOG       34  34  99 CALM      29.45S VSB 1/4
6HR MIN TEMP:  34; 6HR MAX TEMP:  35; 6HR PCP:  0.03;

MERRILL        CLOUDY    36  36 100 CALM        N/A  FOG
6HR MIN TEMP:  35; 6HR MAX TEMP:  37; 6HR PCP:  0.01;

$$

WIZ029-030-035-036-043>047-220100-
CENTRAL WISCONSIN

CITY           SKY/WX    TMP DP  RH WIND       PRES   REMARKS
WAUSAU         CLOUDY    35  35 100 SE3       29.47R FOG
6HR MIN TEMP:  35; 6HR MAX TEMP:  36;

MOSINEE        FOG       34  34 100 E3        29.48R VSB 1/2
MARSHFIELD     FOG       36  35  96 SE3       29.46R VSB 1/4
6HR MIN TEMP:  35; 6HR MAX TEMP:  36; 6HR PCP: TRACE;

STEVENS POINT  FOG       33  33 100 CALM      29.49R VSB 1/2
6HR MIN TEMP:  33; 6HR MAX TEMP:  35;

WAUPACA        CLOUDY    38  37  97 CALM      29.50R FOG
6HR MIN TEMP:  37; 6HR MAX TEMP:  39;

WAUTOMA        FOG       35  34  96 SW3       29.51R VSB 1/4
6HR MIN TEMP:  35; 6HR MAX TEMP:  39; 6HR PCP:  0.01;

WISC RAPIDS    FOG       37  37 100 S3        29.50R VSB 1/4
6HR MIN TEMP:  35; 6HR MAX TEMP:  38;

CAMP DOUGLAS   CLOUDY    37  37 100 SE5       29.49R FOG     WCI  34
$$

WIZ011>013-019>022-031-037>040-048>050-220100-
NORTHEAST WISCONSIN

CITY           SKY/WX    TMP DP  RH WIND       PRES   REMARKS
ANTIGO         CLOUDY    33  33 100 CALM      29.47R FOG
6HR MIN TEMP:  33; 6HR MAX TEMP:  34;

SHAWANO        FOG       36  35  96 CALM      29.49R VSB 3/4
6HR MIN TEMP:  36; 6HR MAX TEMP:  37; 6HR PCP:  0.01;

OCONTO         CLOUDY    35  35  99 CALM      29.48R VSB 1/4
6HR MIN TEMP:  35; 6HR MAX TEMP:  37;

STURGEON BAY   FOG       39  39 100 SE5       29.49R VSB 1/4
6HR MIN TEMP:  39; 6HR MAX TEMP:  41; 6HR PCP:  0.03;

GREEN BAY      FOG       37  37 100 CALM      29.49R VSB 1/4
6HR MIN TEMP:  36; 6HR MAX TEMP:  38;

MANITOWOC      FOG       37  36  96 MISG      29.51R VSB 1/4
6HR MIN TEMP:  37; 6HR MAX TEMP:  41; 6HR PCP: TRACE;

APPLETON       FOG       37  37 100 CALM      29.47R VSB 1/4
CLINTONVILLE   CLOUDY    34  34 100 CALM      29.49R FOG
OSHKOSH        FOG       40  39  97 SW7       29.49R VSB 1
6HR MIN TEMP:  37; 6HR MAX TEMP:  40;

$$

WIZ032>034-041-042-053>061-220100-
SOUTHWEST WISCONSIN

CITY           SKY/WX    TMP DP  RH WIND       PRES   REMARKS
LA CROSSE      FOG       41  38  89 CALM      29.48R VSB 1/4
6HR MIN TEMP:  40; 6HR MAX TEMP:  43; 6HR PCP: TRACE;

SPARTA         CLOUDY    38  38 100 CALM      29.49R FOG
6HR MIN TEMP:  37; 6HR MAX TEMP:  41;

VIROQUA        CLOUDY    38  38 100 S7        29.47S VSB 1/4 WCI  33
6HR MIN TEMP:  38; 6HR MAX TEMP:  40;

BOSCOBEL       CLOUDY    43  41  93 S5        29.51R
6HR MIN TEMP:  42; 6HR MAX TEMP:  45;

PRAIRIE DU CHI CLOUDY    41  40  97 CALM      29.51R FOG
6HR MIN TEMP:  40; 6HR MAX TEMP:  43;

PLATTEVILLE    CLOUDY    41  41 100 S6        29.52R
6HR MIN TEMP:  41; 6HR MAX TEMP:  44;

$$

WIZ056-057-062-063-064-067-068-220100-
SOUTH CENTRAL WISCONSIN

CITY           SKY/WX    TMP DP  RH WIND       PRES   REMARKS
REEDSBURG      CLOUDY    40  40 100 CALM      29.50R
6HR MIN TEMP:  38; 6HR MAX TEMP:  42;

BARABOO/DELLS  CLOUDY    40  40  98 SW3       29.50S FOG
6HR MIN TEMP:  38; 6HR MAX TEMP:  42;

LONE ROCK      FOG       39  38  96 S3        29.52R VSB 1/4
6HR MIN TEMP:  38; 6HR MAX TEMP:  43;

MINERAL POINT  CLOUDY    43  43 100 SW8       29.51R FOG
MADISON        CLOUDY    42  41  96 CALM      29.52R
6HR MIN TEMP:  42; 6HR MAX TEMP:  45; 6HR PCP: TRACE;

MIDDLETON      CLOUDY    43  43 100 SW3       29.52R
6HR MIN TEMP:  43; 6HR MAX TEMP:  46;

WATERTOWN      CLOUDY    43  43 100 SW8       29.52R
6HR MIN TEMP:  43; 6HR MAX TEMP:  49;

MONROE         CLOUDY    41  41 100 S3        29.52R FOG
JANESVILLE     CLOUDY    45  45 100 W9        29.53R FOG
$$

WIZ051-052-058>065-066-070>072-220100-
SOUTHEAST WISCONSIN

CITY           SKY/WX    TMP DP  RH WIND       PRES   REMARKS
MILWAUKEE      MOCLDY    49  42  77 SW6       29.52R
6HR MIN TEMP:  45; 6HR MAX TEMP:  56;

WAUKESHA       PTCLDY    45  41  87 SW6       29.52R
MILWAUKEE/TIMM PTCLDY    46  39  76 SW5       29.51R
RACINE         CLEAR     49  42  77 SW5       29.53R
6HR MIN TEMP:  42; 6HR MAX TEMP:  55;

KENOSHA        CLEAR     46  40  79 SW7       29.51R
6HR MIN TEMP:  46; 6HR MAX TEMP:  58;

FOND DU LAC    CLOUDY    43  40  89 SW7       29.50R FOG
6HR MIN TEMP:  42; 6HR MAX TEMP:  45;

SHEBOYGAN      FOG       37  36  96 SW3       29.51R VSB 1/2
6HR MIN TEMP:  36; 6HR MAX TEMP:  43;

WEST BEND      CLOUDY    43  43 100 W5        29.51R FOG
JUNEAU         CLOUDY    41  40  96 SW8       29.52R FOG
6HR MIN TEMP:  40; 6HR MAX TEMP:  44;

$$

LSZ147-162-220100-
LAKE SUPERIOR

STATION/POSITION TIME  TEMP    WIND        PRES    WAVE
                       AIR SEA DIR/SP/G            HT/PER
                 (UTC) (F)     (DEG/KT/KT) (MB)    (FT/S)
DEVILS ISLAND    0000   35      50/ 10/ 11  999.7R
PORT WING        2330   34      40/  9/  9  999.0S
SAXON HARBOR     2330   34      CALM  /  2  998.6R
$$

LMZ867-665-643>646-220100-
LAKE MICHIGAN

STATION/POSITION TIME  TEMP    WIND        PRES    WAVE
                       AIR SEA DIR/SP/G            HT/PER
                 (UTC) (F)     (DEG/KT/KT) (MB)    (FT/S)
NORTHPORT PIER   2340   37        CALM      999.0S
SISTER BAY       2350   40        CALM       N/A
KEWAUNEE LAKESHO 2348           CALM  /  1  998.3R
SHEBOYGAN LAKESH 0000   39     22



USA.gov is the U.S. government's official web portal to all federal, state and local government web resources and services.